SAE45 UAAA-ZJSY

Flight info

Callsign SAE45
Flight time N/A
Altitude 35000
Route PIGAL1A PIGAL M610 RULAD/K0893S1070 A460 XKC L888 SADAN Y1 OMBON W245 OVRAL B330 QNX/K0898S1130 V86 BSE R339 WUY W169 ISGEG/K0907S1100 W169 RUNEG/K0900S1130 V41 DABUB DABUB2C
Aircraft B77L/H-SDE1E2E3FGHIJ2J3J4J5M1RWXY/LB1D1

Departure

Time 2026-04-22 18:40
Airport Almaty International Airport (UAAA)

Arrival

Time N/A
Airport Sanya Phoenix International Airport (ZJSY)
Time Latitude Longitude Altitude Speed Heading
2026-04-22 18:22 43.35102 77.02159 2221 ft 0 kts
2026-04-22 18:28 43.35090 77.02158 2221 ft 2 kts
2026-04-22 18:28 43.35075 77.02157 2221 ft 2 kts
2026-04-22 18:28 43.35060 77.02155 2222 ft 2 kts 11°
2026-04-22 18:28 43.35046 77.02148 2222 ft 2 kts 32°
2026-04-22 18:29 43.35034 77.02135 2222 ft 2 kts 48°
2026-04-22 18:29 43.35025 77.02119 2222 ft 2 kts 64°
2026-04-22 18:29 43.35021 77.02100 2222 ft 2 kts 81°
2026-04-22 18:29 43.35020 77.02086 2222 ft 0 kts 93°
2026-04-22 18:30 43.35020 77.02083 2222 ft 0 kts 94°
2026-04-22 18:31 43.35020 77.02084 2222 ft 0 kts 94°
2026-04-22 18:31 43.35019 77.02132 2222 ft 1 kts 92°
2026-04-22 18:32 43.35019 77.02134 2222 ft 0 kts 92°
2026-04-22 18:33 43.35019 77.02148 2222 ft 6 kts 93°
2026-04-22 18:33 43.34977 77.02250 2224 ft 17 kts 135°
2026-04-22 18:33 43.34860 77.02393 2228 ft 26 kts 139°
2026-04-22 18:33 43.34778 77.02576 2230 ft 22 kts 82°
2026-04-22 18:34 43.34851 77.02749 2229 ft 19 kts 56°
2026-04-22 18:34 43.34921 77.02898 2229 ft 17 kts 57°
2026-04-22 18:34 43.35001 77.03057 2227 ft 25 kts 57°
2026-04-22 18:34 43.35120 77.03296 2229 ft 34 kts 56°
2026-04-22 18:35 43.35247 77.03560 2232 ft 30 kts 58°
2026-04-22 18:35 43.35359 77.03782 2235 ft 26 kts 55°
2026-04-22 18:35 43.35462 77.03980 2236 ft 23 kts 55°
2026-04-22 18:35 43.35548 77.04160 2236 ft 24 kts 57°
2026-04-22 18:36 43.35661 77.04386 2237 ft 33 kts 54°
2026-04-22 18:36 43.35781 77.04638 2239 ft 29 kts 58°
2026-04-22 18:36 43.35887 77.04855 2239 ft 26 kts 56°
2026-04-22 18:36 43.35983 77.05051 2240 ft 23 kts 53°
2026-04-22 18:37 43.36089 77.05260 2240 ft 31 kts 55°
2026-04-22 18:37 43.36224 77.05539 2242 ft 39 kts 57°
2026-04-22 18:37 43.36383 77.05856 2243 ft 39 kts 56°
2026-04-22 18:37 43.36531 77.06145 2246 ft 34 kts 55°
2026-04-22 18:38 43.36662 77.06410 2246 ft 31 kts 57°
2026-04-22 18:38 43.36780 77.06643 2245 ft 28 kts 56°
2026-04-22 18:38 43.36901 77.06893 2239 ft 31 kts 56°
2026-04-22 18:39 43.36974 77.07037 2238 ft 9 kts 233°
2026-04-22 18:39 43.36869 77.06831 2240 ft 61 kts 235°
2026-04-22 18:39 43.36462 77.06014 2245 ft 145 kts 236°
2026-04-22 18:39 43.35728 77.04568 2353 ft 211 kts 234°
2026-04-22 18:40 43.34924 77.02937 3338 ft 209 kts 236°
2026-04-22 18:40 43.34128 77.01244 3889 ft 218 kts 234°
2026-04-22 18:40 43.33231 76.99460 4261 ft 236 kts 233°
2026-04-22 18:40 43.32265 76.97540 4701 ft 253 kts 234°
2026-04-22 18:41 43.31242 76.95483 5263 ft 264 kts 235°
2026-04-22 18:41 43.30459 76.93194 5852 ft 277 kts 259°
2026-04-22 18:41 43.30571 76.90550 6512 ft 284 kts 290°
2026-04-22 18:41 43.31648 76.88313 7202 ft 287 kts 321°
2026-04-22 18:42 43.33407 76.86992 7917 ft 289 kts 340°
2026-04-22 18:42 43.35294 76.86061 8695 ft 291 kts 341°
2026-04-22 18:42 43.37213 76.85149 9357 ft 295 kts 341°
2026-04-22 18:42 43.39197 76.84208 9827 ft 299 kts 340°
2026-04-22 18:43 43.41170 76.83288 9921 ft 308 kts 344°
2026-04-22 18:43 43.43389 76.82742 9954 ft 338 kts 356°
2026-04-22 18:43 43.45868 76.82916 9855 ft 369 kts 10°
2026-04-22 18:43 43.48347 76.84026 10160 ft 385 kts 26°
2026-04-22 18:44 43.50589 76.86078 10909 ft 391 kts 42°
2026-04-22 18:44 43.52380 76.88931 11698 ft 394 kts 57°
2026-04-22 18:44 43.53677 76.92289 12494 ft 398 kts 68°
2026-04-22 18:44 43.54716 76.95840 13250 ft 403 kts 69°
2026-04-22 18:45 43.55527 76.99526 14194 ft 405 kts 79°
2026-04-22 18:45 43.55850 77.03429 14929 ft 410 kts 90°
2026-04-22 18:45 43.55689 77.07336 15663 ft 416 kts 98°
2026-04-22 18:45 43.55254 77.11328 16340 ft 424 kts 101°
2026-04-22 18:46 43.54661 77.15279 17118 ft 429 kts 104°
2026-04-22 18:46 43.53929 77.19295 17888 ft 432 kts 106°
2026-04-22 18:46 43.53101 77.23354 18539 ft 440 kts 107°
2026-04-22 18:46 43.52210 77.27436 19125 ft 448 kts 108°
2026-04-22 18:47 43.51275 77.31529 19884 ft 452 kts 109°
2026-04-22 18:47 43.50304 77.35668 20568 ft 458 kts 109°
2026-04-22 18:47 43.49301 77.39853 21092 ft 467 kts 109°
2026-04-22 18:47 43.48447 77.44202 21713 ft 473 kts 101°
2026-04-22 18:48 43.48096 77.48717 22338 ft 479 kts 91°
2026-04-22 18:48 43.48273 77.53388 22940 ft 484 kts 81°
2026-04-22 18:48 43.48982 77.57948 23534 ft 488 kts 71°
2026-04-22 18:48 43.50200 77.62270 24158 ft 490 kts 62°
2026-04-22 18:49 43.51886 77.66334 24709 ft 493 kts 55°
2026-04-22 18:49 43.53748 77.70347 25245 ft 499 kts 55°
2026-04-22 18:49 43.55484 77.74505 25768 ft 507 kts 62°
2026-04-22 18:49 43.56788 77.79069 26289 ft 515 kts 71°
2026-04-22 18:50 43.57595 77.83939 26815 ft 523 kts 81°
2026-04-22 18:50 43.57857 77.88969 27399 ft 528 kts 90°
2026-04-22 18:50 43.57780 77.94072 28034 ft 531 kts 91°
2026-04-22 18:50 43.57668 77.99187 28472 ft 539 kts 91°
2026-04-22 18:51 43.57558 78.04378 28896 ft 547 kts 91°
2026-04-22 18:51 43.57453 78.09615 29503 ft 550 kts 91°
2026-04-22 18:51 43.57350 78.14865 30307 ft 548 kts 91°
2026-04-22 18:51 43.57250 78.20094 31033 ft 548 kts 91°
2026-04-22 18:52 43.57148 78.25417 31653 ft 550 kts 91°
2026-04-22 18:52 43.57045 78.30764 32262 ft 550 kts 91°
2026-04-22 18:52 43.56942 78.36050 32857 ft 551 kts 91°
2026-04-22 18:52 43.56839 78.41320 33429 ft 551 kts 90°
2026-04-22 18:53 43.56734 78.46575 34030 ft 551 kts 90°
2026-04-22 18:53 43.56626 78.51907 34587 ft 552 kts 90°
2026-04-22 18:53 43.56517 78.57166 34980 ft 555 kts 91°
2026-04-22 18:53 43.56405 78.62507 34993 ft 557 kts 90°
2026-04-22 18:54 43.56176 78.73092 34990 ft 551 kts 91°
2026-04-22 18:54 43.55939 78.83627 34987 ft 553 kts 91°
2026-04-22 18:55 43.55690 78.94245 34985 ft 552 kts 91°
2026-04-22 18:55 43.55434 79.04764 34963 ft 554 kts 91°
2026-04-22 18:56 43.55167 79.15354 34977 ft 554 kts 91°
2026-04-22 18:56 43.54888 79.26022 34957 ft 554 kts 90°
2026-04-22 18:57 43.54603 79.36567 34949 ft 554 kts 91°
2026-04-22 18:57 43.54308 79.47122 34940 ft 554 kts 91°
2026-04-22 18:58 43.54001 79.57721 34952 ft 555 kts 91°
2026-04-22 18:58 43.53683 79.68390 34952 ft 556 kts 91°
2026-04-22 18:59 43.53355 79.79042 34941 ft 554 kts 91°
2026-04-22 18:59 43.53017 79.89691 34965 ft 555 kts 91°
2026-04-22 19:00 43.52710 79.99126 34964 ft 557 kts 91°